sat.trackr.live / text

‹ back to catalog

FLOCK 4H-30

NORAD 66733 · 2025-276BV

PAYLOAD ACTIVE UNKNOWN

§ Identity

Operator
Country
US
Launch date
2025-11-28
Launch site
AFWTR
Launch vehicle
Mass (kg)
RCS (m²)

Purposes: earth_obs

External: N2YO · Heavens-Above · Gunter

§ Orbital elements

Epoch: 2026-05-25T04:10:00.259968Z

Period
94.77 min
Inclination
97.4236°
Eccentricity
0.0005951
Mean motion
15.19517063 rev/d
Perigee alt
503.2 km
Apogee alt
511.4 km
Semi-major
6,885.4 km
B*
2.7538e-4
RAAN
219.1390°
Arg perigee
94.3753°
Mean anomaly
265.8162°
Rev number
2,692

§ Raw data

FLOCK 4H-301 66733U 25276BV  26145.17361412  .00005784  00000+0  27538-3 0  99912 66733  97.4236 219.1390 0005951  94.3753 265.8162 15.19517063 26921

JSON: /api/v1/satellites/66733 · /tle

For live sub-satellite position, see the globe view (requires WebGL).

§ Visibility from observer

Set your observer location to see the next 7 days of passes ≥ 10°. The values pass through the URL so the page stays shareable.

No JS? Fill the form by hand. The geolocation button needs JavaScript.